Richmond International Airport
KRIC : now visible

Airfield :











YOU CAN JOIN US ON...

 
LOGIN :

Register | Disclaimer

   EN    FR    IT 

 









Legend :    VFR   Marginal VFR   IFR   Intensive IFR   Very Intensive IFR
Visi :
Ceiling :
>= 8 km
>= 3000ft
5 to 8 km
1000 to 3000 ft
1500m to 5 km
500 to 1000 ft
800 to 1500m
200 to 500 ft
< 800m
< 200 ft
Symbols :   Thunderstorms  Fog  Heavy snow  Heavy precipitations  Wind > 20 kt






- Airport Elevation : 167 ft
- IATA code : RIC


KRIC - Richmond International

CURRENT METAR :
  • 261154Z 30006KT 10SM CLR 15/12 A3006 RMK AO2 SLP184 T01500117 10172 20139 53022

EXPIRED METARs :
  • 261054Z 31004KT 10SM FEW070 FEW300 14/11 A3004 RMK AO2 SLP176 T01390111
  • 260954Z 33005KT 10SM FEW070 14/11 A3001 RMK AO2 SLP166 T01440111

TAF KRIC
Valid from the 26 at 12:00 until the 27 at 12:00 UTC


261120Z 2612/2712 31004KT P6SM FEW070 FEW300
FM261300 33009KT P6SM SKC
FM262100 30007KT P6SM SKC
KZDC FIR / North America



MET'MAP, your aeronautical weather chart ! - Copyright ORBIFLY December 2007 - Disclaimer

ORBIFLY MET'MAP TEAM :

Programming & Development : Alexandra Zaïnal
Concept & original design : Baudouin d'Aumeries
Assistance for programming : Marc-Olivier Méhu
Technical & hardware support : Manuel Goepfert

Contact : metmap@orbifly.com




SOURCES & CREDITS :

   NOAA       Earth
Advisory